Location: Table Mountain
(47.2500°N, 120.5778°W)
Time: 22:22:17
(UTC-08:00)

Vanguard 1 - Visible Passes

Search period start: 16 December 2017 00:00
Search period end: 26 December 2017 00:00
Orbit: 650 x 3834 km, 34.2° (Epoch: 15 December)

Date Brightness Start Highest point End Pass type
(mag) Time Alt. Az. Time Alt. Az. Time Alt. Az.
16 Dec 14.5 05:53:40 10° S 06:09:30 24° SE 06:23:18 10° E visible
17 Dec 14.4 06:12:20 10° SSW 06:30:15 30° SE 06:45:27 10° E visible
18 Dec 14.6 04:19:40 10° SSE 04:28:36 14° SE 04:37:19 10° ESE visible
18 Dec 14.2 06:31:40 10° SSW 06:51:04 35° SSE 07:07:09 10° E visible
19 Dec 14.4 04:35:36 10° S 04:49:00 19° SE 05:01:59 10° E visible
19 Dec 14.0 06:51:29 10° SSW 07:11:58 41° SSE 07:28:35 10° E visible
20 Dec 14.3 04:53:27 10° S 05:09:30 25° SE 05:24:56 10° E visible
20 Dec 13.9 07:11:40 10° SW 07:32:56 46° SSE 07:49:50 10° E visible
21 Dec 14.2 05:12:16 10° SSW 05:30:05 31° SE 05:47:06 10° E visible
22 Dec 14.3 03:19:59 10° SSE 03:28:48 14° SE 03:37:57 10° ESE visible
22 Dec 14.0 05:31:41 10° SSW 05:50:47 37° SSE 06:08:51 10° E visible
23 Dec 14.2 03:36:12 10° SSE 03:49:01 19° SE 04:02:36 10° E visible
23 Dec 13.8 05:51:32 10° SSW 06:11:35 42° SSE 06:30:21 10° E visible
24 Dec 14.0 03:54:13 10° S 04:09:20 25° SE 04:25:36 10° E visible
24 Dec 13.7 06:11:44 10° SW 06:32:30 47° SSE 06:51:40 10° E visible
25 Dec 13.9 04:13:07 10° SSW 04:29:46 31° SE 04:47:50 10° E visible
25 Dec 13.6 06:32:12 10° SW 06:53:31 51° SSE 07:12:52 10° E visible
